| time (UTC) | temp F | wind direction | speed MPH | gust MPH | rain 1hr in | rain 24hr in | rain mn in | humidity % | barometer mb |
| 20260504032003 | 51 | 251 | 2.0 | 9.0 | 0.00 | 0.00 | 0.00 | 46 | 1012.2 |
| 20260504031503 | 51 | 288 | 3.0 | 5.0 | 0.00 | 0.00 | 0.00 | 46 | 1012.3 |
| 20260504025504 | 51 | 292 | 2.0 | 7.0 | 0.00 | 0.00 | 0.00 | 46 | 1012.2 |
| 20260504025003 | 51 | 272 | 2.0 | 7.0 | 0.00 | 0.00 | 0.00 | 47 | 1012.1 |
| 20260504024503 | 51 | 302 | 0.0 | 3.0 | 0.00 | 0.00 | 0.00 | 47 | 1012.2 |
| 20260504024003 | 51 | 279 | 1.0 | 3.0 | 0.00 | 0.00 | 0.00 | 47 | 1012.3 |
| 20260504023503 | 51 | 294 | 1.0 | 8.0 | 0.00 | 0.00 | 0.00 | 46 | 1012.2 |
| 20260504022503 | 51 | 287 | 1.0 | 6.0 | 0.00 | 0.00 | 0.00 | 46 | 1012.3 |
| 20260504022004 | 51 | 273 | 1.0 | 3.0 | 0.00 | 0.00 | 0.00 | 45 | 1012.2 |
| 20260504021503 | 51 | 276 | 1.0 | 3.0 | 0.00 | 0.00 | 0.00 | 45 | 1012.2 |
| 20260504021003 | 51 | 271 | 1.0 | 3.0 | 0.00 | 0.00 | 0.00 | 45 | 1012.2 |
| 20260504020503 | 51 | 270 | 1.0 | 2.0 | 0.00 | 0.00 | 0.00 | 45 | 1012.2 |
| 20260504015505 | 51 | 286 | 0.0 | 0.0 | 0.00 | 0.00 | 0.00 | 45 | 1012.3 |
| 20260504015003 | 50 | 298 | 0.0 | 1.0 | 0.00 | 0.00 | 0.00 | 45 | 1012.2 |
| 20260504014503 | 50 | 310 | 1.0 | 3.0 | 0.00 | 0.00 | 0.00 | 45 | 1012.2 |
| 20260504013503 | 50 | 212 | 0.0 | 1.0 | 0.00 | 0.00 | 0.00 | 47 | 1012.1 |
| 20260504013003 | 49 | 210 | 0.0 | 0.0 | 0.00 | 0.00 | 0.00 | 47 | 1011.9 |
| 20260504012503 | 49 | 205 | 0.0 | 0.0 | 0.00 | 0.00 | 0.00 | 48 | 1012.1 |
| 20260504011504 | 49 | 194 | 0.0 | 0.0 | 0.00 | 0.00 | 0.00 | 49 | 1012.0 |
| 20260504011003 | 50 | 194 | 0.0 | 2.0 | 0.00 | 0.00 | 0.00 | 49 | 1011.9 |
| 20260504010503 | 50 | 194 | 1.0 | 3.0 | 0.00 | 0.00 | 0.00 | 48 | 1011.8 |
| 20260504010003 | 50 | 194 | 1.0 | 3.0 | 0.00 | 0.00 | 0.00 | 48 | 1011.8 |
| 20260504005503 | 50 | 197 | 1.0 | 3.0 | 0.00 | 0.00 | 0.00 | 49 | 1011.6 |
| 20260504005003 | 50 | 197 | 2.0 | 3.0 | 0.00 | 0.00 | 0.00 | 48 | 1011.6 |
| 20260504004502 | 51 | 261 | 2.0 | 3.0 | 0.00 | 0.00 | 0.00 | 48 | 1011.6 |
| 20260504004003 | 51 | 276 | 2.0 | 3.0 | 0.00 | 0.00 | 0.00 | 47 | 1011.5 |
| 20260504003003 | 52 | 277 | 0.0 | 2.0 | 0.00 | 0.00 | 0.00 | 46 | 1011.4 |
| 20260504002503 | 52 | 277 | 0.0 | 3.0 | 0.00 | 0.00 | 0.00 | 46 | 1011.4 |
| 20260504001503 | 53 | 328 | 0.0 | 0.0 | 0.00 | 0.00 | 0.00 | 44 | 1011.3 |
| 20260504000503 | 54 | 329 | 0.0 | 0.0 | 0.00 | 0.00 | 0.00 | 42 | 1011.2 |
| 20260504000003 | 54 | 329 | 0.0 | 1.0 | 0.00 | 0.00 | 0.00 | 42 | 1011.1 |
| 20260503235503 | 54 | 329 | 1.0 | 3.0 | 0.00 | 0.00 | 0.00 | 41 | 1011.1 |
| 20260503235003 | 54 | 326 | 2.0 | 3.0 | 0.00 | 0.00 | 0.00 | 39 | 1011.0 |
| 20260503234503 | 55 | 315 | 3.0 | 7.0 | 0.00 | 0.00 | 0.00 | 40 | 1011.0 |
| 20260503234003 | 55 | 330 | 3.0 | 3.0 | 0.00 | 0.00 | 0.00 | 40 | 1010.9 |
| 20260503233503 | 55 | 347 | 3.0 | 10.0 | 0.00 | 0.00 | 0.00 | 38 | 1010.8 |
| 20260503233003 | 55 | 358 | 3.0 | 6.0 | 0.00 | 0.00 | 0.00 | 39 | 1010.7 |
| 20260503232503 | 56 | 0 | 3.0 | 5.0 | 0.00 | 0.00 | 0.00 | 39 | 1010.7 |
| 20260503232003 | 56 | 340 | 3.0 | 5.0 | 0.00 | 0.00 | 0.00 | 39 | 1010.8 |
| 20260503231503 | 56 | 350 | 4.0 | 6.0 | 0.00 | 0.00 | 0.00 | 38 | 1010.7 |
| 20260503231003 | 56 | 329 | 4.0 | 8.0 | 0.00 | 0.00 | 0.00 | 38 | 1010.7 |
| 20260503230503 | 56 | 353 | 6.0 | 12.0 | 0.00 | 0.00 | 0.00 | 36 | 1010.6 |
| 20260503230003 | 57 | 351 | 5.0 | 9.0 | 0.00 | 0.00 | 0.00 | 36 | 1010.6 |
| 20260503225504 | 57 | 357 | 5.0 | 10.0 | 0.00 | 0.00 | 0.00 | 36 | 1010.6 |
| 20260503224504 | 56 | 352 | 5.0 | 9.0 | 0.00 | 0.00 | 0.00 | 37 | 1010.5 |
| 20260503223504 | 56 | 349 | 3.0 | 6.0 | 0.00 | 0.00 | 0.00 | 36 | 1010.6 |
| 20260503223003 | 56 | 332 | 5.0 | 12.0 | 0.00 | 0.00 | 0.00 | 35 | 1010.5 |
| 20260503222503 | 56 | 341 | 5.0 | 9.0 | 0.00 | 0.00 | 0.00 | 35 | 1010.4 |
| 20260503222003 | 56 | 324 | 3.0 | 9.0 | 0.00 | 0.00 | 0.00 | 35 | 1010.5 |
| 20260503221504 | 57 | 0 | 5.0 | 9.0 | 0.00 | 0.00 | 0.00 | 33 | 1010.5 |
| 20260503221003 | 57 | 340 | 6.0 | 9.0 | 0.00 | 0.00 | 0.00 | 34 | 1010.5 |
| 20260503220504 | 57 | 352 | 4.0 | 6.0 | 0.00 | 0.00 | 0.00 | 34 | 1010.4 |
| 20260503220004 | 57 | 349 | 3.0 | 8.0 | 0.00 | 0.00 | 0.00 | 35 | 1010.4 |
| 20260503215506 | 57 | 358 | 5.0 | 12.0 | 0.00 | 0.00 | 0.00 | 33 | 1010.5 |
| 20260503215003 | 57 | 341 | 5.0 | 10.0 | 0.00 | 0.00 | 0.00 | 34 | 1010.5 |
| 20260503214503 | 58 | 351 | 6.0 | 9.0 | 0.00 | 0.00 | 0.00 | 36 | 1010.3 |
| 20260503214003 | 57 | 351 | 5.0 | 12.0 | 0.00 | 0.00 | 0.00 | 34 | 1010.4 |
| 20260503213503 | 57 | 346 | 6.0 | 12.0 | 0.00 | 0.00 | 0.00 | 33 | 1010.2 |
| 20260503213003 | 57 | 353 | 6.0 | 10.0 | 0.00 | 0.00 | 0.00 | 33 | 1010.2 |
| 20260503212503 | 57 | 342 | 7.0 | 12.0 | 0.00 | 0.00 | 0.00 | 32 | 1010.2 |
| 20260503212003 | 57 | 349 | 6.0 | 12.0 | 0.00 | 0.00 | 0.00 | 34 | 1010.3 |
| 20260503211506 | 57 | 335 | 8.0 | 12.0 | 0.00 | 0.00 | 0.00 | 32 | 1010.2 |
| 20260503211003 | 57 | 356 | 6.0 | 12.0 | 0.00 | 0.00 | 0.00 | 32 | 1010.3 |
| 20260503210503 | 57 | 337 | 5.0 | 10.0 | 0.00 | 0.00 | 0.00 | 34 | 1010.3 |
| 20260503210003 | 57 | 341 | 7.0 | 14.0 | 0.00 | 0.00 | 0.00 | 32 | 1010.3 |
| 20260503205503 | 57 | 350 | 6.0 | 9.0 | 0.00 | 0.00 | 0.00 | 35 | 1010.3 |
| 20260503205003 | 57 | 345 | 8.0 | 13.0 | 0.00 | 0.00 | 0.00 | 32 | 1010.4 |
| 20260503204503 | 56 | 358 | 6.0 | 13.0 | 0.00 | 0.00 | 0.00 | 34 | 1010.5 |
| 20260503203504 | 56 | 340 | 8.0 | 13.0 | 0.00 | 0.00 | 0.00 | 35 | 1010.5 |
| 20260503203003 | 55 | 312 | 6.0 | 15.0 | 0.00 | 0.00 | 0.00 | 36 | 1010.5 |
| 20260503202504 | 56 | 312 | 8.0 | 15.0 | 0.00 | 0.00 | 0.00 | 33 | 1010.6 |
| 20260503202003 | 56 | 334 | 9.0 | 15.0 | 0.00 | 0.00 | 0.00 | 33 | 1010.5 |
| 20260503201503 | 56 | 336 | 6.0 | 12.0 | 0.00 | 0.00 | 0.00 | 36 | 1010.5 |
| 20260503201003 | 56 | 345 | 7.0 | 12.0 | 0.00 | 0.00 | 0.00 | 35 | 1010.6 |
| 20260503200503 | 54 | 345 | 6.0 | 10.0 | 0.00 | 0.00 | 0.00 | 38 | 1010.6 |
| 20260503200003 | 53 | 348 | 9.0 | 14.0 | 0.00 | 0.00 | 0.00 | 35 | 1010.7 |
| 20260503195503 | 54 | 352 | 6.0 | 12.0 | 0.00 | 0.00 | 0.00 | 35 | 1010.6 |
| 20260503194504 | 54 | 341 | 7.0 | 12.0 | 0.00 | 0.00 | 0.00 | 36 | 1010.7 |
| 20260503193503 | 54 | 340 | 7.0 | 12.0 | 0.00 | 0.00 | 0.00 | 36 | 1010.7 |
| 20260503193003 | 54 | 334 | 5.0 | 10.0 | 0.00 | 0.00 | 0.00 | 37 | 1010.7 |
| 20260503192003 | 55 | 347 | 5.0 | 10.0 | 0.00 | 0.00 | 0.00 | 40 | 1010.8 |
| 20260503191503 | 55 | 341 | 8.0 | 17.0 | 0.00 | 0.00 | 0.00 | 36 | 1010.8 |
| 20260503191003 | 54 | 333 | 6.0 | 20.0 | 0.00 | 0.00 | 0.00 | 37 | 1010.8 |
| 20260503190503 | 55 | 335 | 9.0 | 15.0 | 0.00 | 0.00 | 0.00 | 38 | 1010.9 |
| 20260503185504 | 54 | 339 | 5.0 | 12.0 | 0.00 | 0.00 | 0.00 | 37 | 1010.9 |
| 20260503185004 | 54 | 350 | 7.0 | 10.0 | 0.00 | 0.00 | 0.00 | 39 | 1011.1 |
| 20260503184503 | 53 | 319 | 7.0 | 12.0 | 0.00 | 0.00 | 0.00 | 37 | 1011.2 |
| 20260503184003 | 54 | 337 | 8.0 | 13.0 | 0.00 | 0.00 | 0.00 | 38 | 1011.2 |
| 20260503183503 | 53 | 349 | 5.0 | 25.0 | 0.00 | 0.00 | 0.00 | 41 | 1011.3 |
| 20260503183003 | 53 | 357 | 7.0 | 12.0 | 0.00 | 0.00 | 0.00 | 41 | 1011.2 |
| 20260503182505 | 53 | 327 | 6.0 | 14.0 | 0.00 | 0.00 | 0.00 | 38 | 1011.4 |
| 20260503182005 | 53 | 346 | 7.0 | 12.0 | 0.00 | 0.00 | 0.00 | 41 | 1011.5 |
| 20260503181504 | 53 | 359 | 7.0 | 13.0 | 0.00 | 0.00 | 0.00 | 42 | 1011.4 |
| 20260503181004 | 52 | 336 | 6.0 | 10.0 | 0.00 | 0.00 | 0.00 | 42 | 1011.4 |
| 20260503180503 | 52 | 350 | 6.0 | 12.0 | 0.00 | 0.00 | 0.00 | 41 | 1011.3 |
| 20260503180004 | 52 | 345 | 7.0 | 10.0 | 0.00 | 0.00 | 0.00 | 40 | 1011.4 |
| 20260503175503 | 52 | 351 | 4.0 | 9.0 | 0.00 | 0.00 | 0.00 | 43 | 1011.5 |
| 20260503175004 | 51 | 334 | 5.0 | 8.0 | 0.00 | 0.00 | 0.00 | 43 | 1011.5 |
| 20260503174503 | 51 | 0 | 5.0 | 8.0 | 0.00 | 0.00 | 0.00 | 43 | 1011.5 |
| 20260503174003 | 51 | 351 | 5.0 | 8.0 | 0.00 | 0.00 | 0.00 | 42 | 1011.6 |
| 20260503172003 | 50 | 330 | 9.0 | 14.0 | 0.00 | 0.00 | 0.00 | 41 | 1011.7 |
| 20260503171504 | 49 | 338 | 7.0 | 10.0 | 0.00 | 0.00 | 0.00 | 48 | 1011.9 |
| 20260503171003 | 49 | 3 | 6.0 | 9.0 | 0.00 | 0.00 | 0.00 | 43 | 1011.8 |
| 20260503170504 | 49 | 346 | 6.0 | 10.0 | 0.00 | 0.00 | 0.00 | 46 | 1011.8 |
| 20260503151003 | 46 | 359 | 4.0 | 8.0 | 0.00 | 0.00 | 0.00 | 54 | 1012.4 |
| 20260503150503 | 46 | 341 | 6.0 | 9.0 | 0.00 | 0.00 | 0.00 | 52 | 1012.4 |
| 20260503131003 | 43 | 354 | 6.0 | 17.0 | 0.00 | 0.00 | 0.00 | 62 | 1012.2 |
| 20260503130503 | 43 | 336 | 6.0 | 12.0 | 0.00 | 0.00 | 0.00 | 61 | 1012.3 |
| 20260503110504 | 40 | 7 | 3.0 | 5.0 | 0.00 | 0.00 | 0.00 | 69 | 1011.7 |
| 20260503090503 | 40 | 1 | 3.0 | 5.0 | 0.00 | 0.00 | 0.00 | 66 | 1010.8 |
| 20260503081503 | 41 | 5 | 5.0 | 9.0 | 0.00 | 0.04 | 0.00 | 62 | 1010.6 |
| 20260503081003 | 41 | 354 | 5.0 | 9.0 | 0.00 | 0.04 | 0.00 | 63 | 1010.7 |
| 20260503080505 | 41 | 355 | 6.0 | 8.0 | 0.00 | 0.05 | 0.00 | 62 | 1010.5 |
| 20260503072504 | 42 | 351 | 3.0 | 8.0 | 0.00 | 0.06 | 0.00 | 61 | 1010.5 |
| 20260503072003 | 42 | 358 | 3.0 | 5.0 | 0.00 | 0.07 | 0.00 | 62 | 1010.6 |
| 20260503070503 | 42 | 358 | 4.0 | 6.0 | 0.00 | 0.07 | 0.00 | 60 | 1010.3 |
| 20260503054504 | 44 | 0 | 2.0 | 3.0 | 0.00 | 0.07 | 0.00 | 58 | 1010.8 |
| 20260503054003 | 44 | 0 | 3.0 | 3.0 | 0.00 | 0.07 | 0.00 | 59 | 1010.8 |
| 20260503053504 | 44 | 0 | 3.0 | 5.0 | 0.00 | 0.07 | 0.00 | 58 | 1010.8 |
| 20260503053005 | 44 | 0 | 3.0 | 5.0 | 0.00 | 0.07 | 0.00 | 58 | 1010.9 |
| 20260503052503 | 44 | 357 | 3.0 | 3.0 | 0.00 | 0.07 | 0.00 | 56 | 1011.0 |
| 20260503052003 | 44 | 355 | 3.0 | 5.0 | 0.00 | 0.07 | 0.00 | 56 | 1010.9 |
| 20260503051503 | 44 | 355 | 3.0 | 3.0 | 0.00 | 0.07 | 0.00 | 57 | 1011.1 |
| 20260503051003 | 44 | 355 | 3.0 | 3.0 | 0.00 | 0.07 | 0.00 | 56 | 1011.1 |
| 20260503050004 | 45 | 355 | 3.0 | 5.0 | 0.00 | 0.07 | 0.00 | 56 | 1011.1 |
| 20260503045004 | 45 | 355 | 3.0 | 5.0 | 0.00 | 0.07 | 0.00 | 56 | 1011.2 |
| 20260503044003 | 45 | 355 | 3.0 | 6.0 | 0.00 | 0.07 | 0.00 | 55 | 1011.3 |
| 20260503043504 | 45 | 5 | 3.0 | 5.0 | 0.00 | 0.07 | 0.00 | 55 | 1011.4 |
| 20260503043004 | 45 | 5 | 3.0 | 3.0 | 0.00 | 0.07 | 0.00 | 54 | 1011.4 |
| 20260503042504 | 45 | 5 | 3.0 | 3.0 | 0.00 | 0.07 | 0.00 | 55 | 1011.5 |
| 20260503042003 | 45 | 5 | 3.0 | 3.0 | 0.00 | 0.07 | 0.00 | 55 | 1011.6 |
| 20260503041504 | 45 | 5 | 3.0 | 3.0 | 0.00 | 0.07 | 0.00 | 53 | 1011.6 |
| 20260503041004 | 46 | 5 | 2.0 | 3.0 | 0.00 | 0.07 | 0.00 | 54 | 1011.5 |
| 20260503040504 | 46 | 7 | 3.0 | 5.0 | 0.00 | 0.07 | 0.00 | 53 | 1011.5 |
| 20260503035506 | 46 | 0 | 3.0 | 3.0 | 0.00 | 0.07 | 0.07 | 54 | 1011.6 |
| 20260503034504 | 46 | 5 | 3.0 | 5.0 | 0.00 | 0.07 | 0.07 | 52 | 1011.7 |
| 20260503034009 | 46 | 0 | 3.0 | 5.0 | 0.00 | 0.07 | 0.07 | 52 | 1011.6 |
| 20260503033503 | 46 | 355 | 3.0 | 5.0 | 0.00 | 0.07 | 0.07 | 53 | 1011.7 |
| 20260503033003 | 46 | 355 | 3.0 | 5.0 | 0.00 | 0.07 | 0.07 | 52 | 1011.7 |